This is the latest recevied weather packets stored in our database for station/object K9MWD. If no packets are shown the sender has not sent any weather packets the latest 10 day(s).
| Time | Temp. | Humidity | Pressure | Rain* | Wind** | Luminosity | Snow |
|---|---|---|---|---|---|---|---|
| 1788625014 | 33.89° C | 53% | 1015.1 hPa | 0 mm | - | 714 W/m² | - |
| 1788624711 | 33.89° C | 51% | 1015.2 hPa | 0 mm | - | 698 W/m² | - |
| 1788624410 | 33.33° C | 54% | 1015 hPa | 0 mm | - | 683 W/m² | - |
| 1788624110 | 33.89° C | 53% | 1015.1 hPa | 0 mm | - | 673 W/m² | - |
| 1788623810 | 33.33° C | 54% | 1015 hPa | 0 mm | - | 664 W/m² | - |
| 1788623509 | 33.33° C | 55% | 1015.1 hPa | 0 mm | - | 649 W/m² | - |
| 1788623203 | 33.33° C | 58% | 1014.8 hPa | 0 mm | - | 633 W/m² | - |
| 1788622899 | 32.22° C | 58% | 1015 hPa | 0 mm | - | 621 W/m² | - |
| 1788622595 | 31.67° C | 60% | 1014.8 hPa | 0 mm | - | 608 W/m² | - |
| 1788622290 | 31.67° C | 60% | 1015.1 hPa | 0 mm | - | 586 W/m² | - |
| 1788621985 | 31.67° C | 61% | 1015 hPa | 0 mm | - | 573 W/m² | - |
| 1788621679 | 31.67° C | 59% | 1015 hPa | 0 mm | - | 558 W/m² | - |
| 1788621375 | 31.67° C | 61% | 1015.1 hPa | 0 mm | - | 540 W/m² | - |
| 1788621070 | 31.67° C | 62% | 1014.8 hPa | 0 mm | - | 526 W/m² | - |
| 1788620765 | 31.11° C | 64% | 1014.8 hPa | 0 mm | - | 509 W/m² | - |
| 1788620464 | 31.11° C | 64% | 1014.8 hPa | 0 mm | - | 493 W/m² | - |
| 1788620162 | 30° C | 68% | 1014.7 hPa | 0 mm | - | 476 W/m² | - |
| 1788619861 | 30° C | 68% | 1014.5 hPa | 0 mm | - | 456 W/m² | - |
| 1788619556 | 30° C | 68% | 1014.8 hPa | 0 mm | - | 441 W/m² | - |
| 1788619250 | 30° C | 69% | 1014.6 hPa | 0 mm | - | 423 W/m² | - |
| 1788618949 | 28.89° C | 72% | 1015 hPa | 0 mm | - | 405 W/m² | - |
| 1788618645 | 29.44° C | 72% | 1015.1 hPa | 0 mm | - | 386 W/m² | - |
| 1788618343 | 28.89° C | 72% | 1014.7 hPa | 0 mm | - | 369 W/m² | - |
| 1788618038 | 28.89° C | 73% | 1015 hPa | 0 mm | - | 351 W/m² | - |
| 1788617732 | 28.89° C | 74% | 1015 hPa | 0 mm | - | 328 W/m² | - |
* Rain latest hour (hover to see other rain measurements)
** Current wind speed in m/s (hover to see current wind gust speed)